World > North America > United States > Colorado

Amo, Colorado Regional Weather

Lat: 38.97N, Lon: 104.53W
Wx Zone: COZ084Web Search
Amo Weather Warning NWS WEATHER ALERT FOR THE AMO, CO AREA - Issued: 1123 AM MDT Wed May 5 2021 Amo Weather Warning  

Helpful Tip: Abbreviated, 7 Day, 14 Day Forecasts. There is a weather forecast for every taste.

Feedback


°F Click to change Amo hourly weather to Imperial units.Click to change Amo hourly weather to Metric units. °C
Amo Weather Map
UTC Time: 5/5/2021, 21:38
Your Time:

Amo, CO Regional Weather

Expires:202105052200;;651397
ASUS45 KBOU 052110
RWRCO 

WEATHER ROUNDUP FOR COLORADO
NATIONAL WEATHER SERVICE DENVER/BOULDER CO
300 PM MDT WED MAY 05 2021

NOTE: "FAIR" INDICATES FEW OR NO CLOUDS BELOW 12000 FEET WITH NO
SIGNIFICANT WEATHER AND/OR OBSTRUCTIONS TO VISIBILITY.


COZ041-046-047-076>085-087-088-052200-
...PIKES PEAK/PALMER DIVIDE AND SOUTHERN FOOTHILLS...
  
CITY           SKY/WX    TMP DP  RH WIND       PRES   REMARKS
COLO. SPRINGS  PTSUNNY   58  38  47 NE20      30.21R                  
A. F. ACADEMY  MOSUNNY   58  36  45 NE20G31   30.19S                  
SCHRIEVER AFB  NOT AVBL                                               
CHEYENNE MTN   PTSUNNY   53  36  51 E9G22     30.20R                  
ELLICOTT       PTSUNNY   56  37  49 NE17G23   30.24R                  
FALCON         FAIR      55  33  44 NE23G29   30.25S                  
FORT CARSON    PTSUNNY   58  37  45 NE20G26   30.19R                  
LIMON          LGT RAIN  54  35  48 NW21G29   30.25R                  
MONUMENT HILL  FAIR      45  37  76 NE14G23   30.29R                  
CANON CITY     FAIR      70  37  30 E9        30.15S                  
WALSENBURG     NOT AVBL                                               
TRINIDAD       FAIR      69  34  27 NE10G17   30.15F                  
$$


SKY/WX - Weather  TMP - Temperature  DP - Dew Point  RH - Relative Humidity
WIND - Wind Direction/Speed PRES - Barometric Pressure VSB - Visibility
WCI - Wind Chill Index E13G22 Wind - East Wind 13 mph/Gusts of 22 mph